Simultaneous Nadir Overpasses (SNOs) Predictions

Prediction of SNOs between METOP-B and NPP Satellite Orbit:

Table of predicted SNOs for the next 14.0 days since TLE Epoch: 9/23/2015
Index Date (METOP-B) Time (METOP-B) Lat,Lon (METOP-B) SZA (METOP-B ) Date (NPP) Time (NPP) Lat,Lon (NPP) SZA (NPP ) Distance(km) Time Diff (sec)
1 09/28/2015 01:17:34 72.40, 152.16 74.25 09/28/2015 01:18:44 72.49, 153.65 74.28 50.82 70
2 09/28/2015 02:08:07 -72.85, -39.60 105.32 09/28/2015 02:09:09 -72.86, -39.69 105.32 2.99 62
3 09/28/2015 02:58:47 72.84, 127.70 74.68 09/28/2015 02:59:27 72.85, 127.75 74.69 1.97 40
4 09/28/2015 03:49:28 -72.88, -64.88 105.27 09/28/2015 03:49:45 -72.90, -64.91 105.26 1.65 17
5 09/28/2015 04:40:07 72.92, 102.53 74.79 09/28/2015 04:40:03 72.91, 102.48 74.78 1.96 4
6 09/28/2015 05:30:49 -72.91, -90.16 105.21 09/28/2015 05:30:20 -72.93, -90.13 105.19 2.36 29
7 09/28/2015 06:21:28 72.95, 77.25 74.84 09/28/2015 06:20:38 72.98, 77.21 74.87 3.20 50
8 09/28/2015 07:12:09 -72.99,-115.33 105.11 09/28/2015 07:10:54 -72.97,-115.34 105.13 2.72 75
9 10/03/2015 00:23:24 -72.39, -14.33 103.86 10/03/2015 00:24:33 -72.48, -12.68 103.82 56.24 69
10 10/03/2015 01:13:54 72.89, 154.01 76.63 10/03/2015 01:14:18 72.90, 154.06 76.64 2.43 24
11 10/03/2015 02:04:34 -72.98, -38.47 103.28 10/03/2015 02:03:54 -72.97, -38.48 103.28 0.99 40
12 10/05/2015 16:34:52 -72.93, 103.85 102.32 10/05/2015 16:35:04 -72.95, 103.87 102.31 2.50 12
13 10/05/2015 17:25:27 73.17, -88.30
